Location: Newport
(44.6370°N, 124.0520°W)
Time: 05:29:10
(UTC-07:00)

Vanguard 2 Rocket - All Passes

Search period start: 19 October 2017 00:00
Search period end: 29 October 2017 00:00
Orbit: 555 x 3327 km, 32.9° (Epoch: 18 October)

Date Brightness Start Highest point End Pass type
(mag) Time Alt. Az. Time Alt. Az. Time Alt. Az.
19 Oct - 13:50:54 10° SW 13:56:21 31° SSE 14:04:53 10° ESE daylight
19 Oct - 16:01:54 10° WSW 16:09:32 42° S 16:22:24 10° ESE daylight
19 Oct - 18:14:34 10° WSW 18:24:09 34° SSW 18:38:33 10° SE daylight
19 Oct - 20:31:05 10° WSW 20:39:21 17° SW 20:49:13 10° S visible
20 Oct - 12:53:11 10° SSW 12:57:24 22° SSE 13:03:19 10° ESE daylight
20 Oct - 15:03:23 10° WSW 15:09:51 39° S 15:20:42 10° ESE daylight
20 Oct - 17:15:22 10° WSW 17:23:51 36° SSW 17:37:24 10° SE daylight
20 Oct - 19:29:56 10° WSW 19:38:49 21° SSW 19:50:29 10° SSE visible
21 Oct - 11:56:21 10° S 11:58:41 13° SE 12:01:25 10° ESE daylight
21 Oct - 14:05:05 10° SW 14:10:31 33° SSE 14:19:12 10° ESE daylight
21 Oct - 16:16:30 10° WSW 16:23:53 37° S 16:36:00 10° SE daylight
21 Oct - 18:29:49 10° WSW 18:38:25 25° SSW 18:50:37 10° SSE visible
22 Oct - 13:07:04 10° SW 13:11:28 26° SSE 13:17:56 10° ESE daylight
22 Oct - 15:17:54 10° WSW 15:24:12 37° S 15:34:35 10° ESE daylight
22 Oct - 17:30:22 10° WSW 17:38:13 29° SSW 17:50:05 10° SSE daylight
22 Oct - 19:47:24 10° WSW 19:53:02 13° SSW 19:59:38 10° S visible
23 Oct - 12:09:26 10° SSW 12:12:39 18° SSE 12:16:48 10° ESE daylight
23 Oct - 14:19:29 10° WSW 14:24:49 34° S 14:33:19 10° ESE daylight
23 Oct - 16:31:19 10° WSW 16:38:17 31° SSW 16:49:11 10° SE daylight
23 Oct - 18:45:59 10° WSW 18:52:44 17° SSW 19:01:26 10° S visible
24 Oct - 11:13:22 10° SSE 11:13:57 10° SSE 11:14:35 10° SE daylight
24 Oct - 13:21:16 10° SW 13:25:42 28° SSE 13:32:18 10° ESE daylight
24 Oct - 15:32:35 10° WSW 15:38:36 31° S 15:48:10 10° SE daylight
24 Oct - 17:45:54 10° WSW 17:52:37 20° SSW 18:01:54 10° SSE daylight
25 Oct - 12:23:15 10° SSW 12:26:48 21° SSE 12:31:31 10° ESE daylight
25 Oct - 14:34:03 10° WSW 14:39:12 31° S 14:47:12 10° SE daylight
25 Oct - 16:46:30 10° WSW 16:52:43 23° SSW 17:01:44 10° SSE daylight
26 Oct - 11:25:37 10° SSW 11:28:02 15° SSE 11:30:48 10° ESE daylight
26 Oct - 13:35:41 10° SW 13:40:03 28° S 13:46:27 10° ESE daylight
26 Oct - 15:47:33 10° WSW 15:53:04 25° SSW 16:01:16 10° SE daylight
26 Oct - 18:03:02 10° SW 18:07:03 13° SSW 18:11:49 10° S daylight
27 Oct - 12:37:28 10° SW 12:41:05 23° S 12:45:56 10° ESE daylight
27 Oct - 14:48:51 10° WSW 14:53:39 25° S 15:00:44 10° SE daylight
27 Oct - 17:02:35 10° SW 17:07:11 15° SSW 17:13:06 10° S daylight
28 Oct - 11:39:23 10° SSW 11:42:15 18° SSE 11:45:41 10° ESE daylight
28 Oct - 13:50:20 10° SW 13:54:27 24° S 14:00:19 10° SE daylight
28 Oct - 16:03:04 10° SW 16:07:33 17° SSW 16:13:33 10° SSE daylight
